Regional Weather Roundup
Issued by NWS

Home | Current Version | Previous Version | Text Only | Print | Product List | Glossary On
Versions: 1 2 3 4 5 6 7 8 9 10 11 12 13 14 15 16 17 18 19 20 21 22 23 24 25 26 27 28 29 30 31 32 33 34 35 36 37 38 39 40 41 42 43 44 45 46 47 48 49 50
000
ASUS43 KMKX 041200
RWRWI

WISCONSIN REGIONAL WEATHER ROUNDUP
NATIONAL WEATHER SERVICE MILWAUKEE/SULLIVAN WI
700 AM CDT MON MAY 04 2015

NOTE: "FAIR" INDICATES FEW OR NO CLOUDS BELOW 12,000 FEET WITH NO
SIGNIFICANT WEATHER AND/OR OBSTRUCTIONS TO VISIBILITY.

WIZ001-002-006>008-014>016-023>028-041300-
NORTHWEST WISCONSIN

CITY           SKY/WX    TMP DP  RH WIND       PRES   REMARKS
SUPERIOR ARPT  SUNNY     40  34  79 CALM      30.10R
ASHLAND        SUNNY     44  36  73 SW3       30.10R
6HR MIN TEMP:  39; 6HR MAX TEMP:  51;

HAYWARD        SUNNY     40  36  86 CALM      30.10R
6HR MIN TEMP:  37; 6HR MAX TEMP:  47;

SIREN          SUNNY     37  32  81 CALM      30.11R
CUMBERLAND     SUNNY     45  34  65 N7        30.10R
RICE LAKE      SUNNY     48  34  60 N6        30.10R
CHETEK         SUNNY     48  39  71 CALM      30.09R
LADYSMITH      SUNNY     49  39  67 N8        30.09R
6HR MIN TEMP:  47; 6HR MAX TEMP:  54;

EAU CLAIRE     NOT AVBL
MENOMONIE      MOSUNNY   51  39  63 N7        30.07R
NEW RICHMOND   SUNNY     45  34  65 N5        30.11R
OSCEOLA        CLEAR     46  37  70 CALM      30.14R
$$

WIZ003>005-009-010-017-018-041300-
NORTH CENTRAL WISCONSIN

CITY           SKY/WX    TMP DP  RH WIND       PRES   REMARKS
MANITOWISH WTR SUNNY     46  36  66 N6        30.05R
ARBOR VITAE    SUNNY     46  37  71 N6        30.05R
WOODRUFF       SUNNY     46  37  71 N6        30.05R
RHINELANDER    SUNNY     50  39  66 VRB5      30.04R
6HR MIN TEMP:  48; 6HR MAX TEMP:  54;

EAGLE RIVER    SUNNY     48  37  65 N8        30.03R
LAND O LAKES   SUNNY     48  36  62 N8        30.04R
PHILLIPS       SUNNY     42  37  83 NW3       30.05R
TOMAHAWK       SUNNY     46  40  82 NW5       30.04R
MEDFORD        SUNNY     48  40  75 N8        30.03R
MERRILL        SUNNY     49  44  82 N6        30.02R
$$

WIZ029-030-035-036-043>047-041300-
CENTRAL WISCONSIN

CITY           SKY/WX    TMP DP  RH WIND       PRES   REMARKS
WAUSAU         SUNNY     53  45  74 N7        30.01R
6HR MIN TEMP:  52; 6HR MAX TEMP:  58;

MOSINEE        SUNNY     52  52 100 NW7       30.02R
MARSHFIELD     SUNNY     53  46  77 N9        30.03R
6HR MIN TEMP:  51; 6HR MAX TEMP:  58;

STEVENS POINT  MOSUNNY   52  52  99 NW5       30.01R
WAUPACA        PTSUNNY   58  57  95 W5        29.98R
WAUTOMA        PTSUNNY   57  57 100 CALM      30.00R
WISC RAPIDS    MOSUNNY   54  52  93 N5        30.03R
6HR MIN TEMP:  52; 6HR MAX TEMP:  59; 6HR PCP:  0.01;

CAMP DOUGLAS   PTSUNNY   55  55 100 W6        30.01R
$$

WIZ011>013-019>022-031-037>040-048>050-041300-
NORTHEAST WISCONSIN

CITY           SKY/WX    TMP DP  RH WIND       PRES   REMARKS
ANTIGO         SUNNY     48  47  96 NW5       30.01R
SHAWANO        SUNNY     57  55  94 NW5       29.99R
OCONTO         MOSUNNY   57  57 100 NW3       29.97R
STURGEON BAY   PTSUNNY   57  54  88 NW7       29.99R
6HR MIN TEMP:  55; 6HR MAX TEMP:  59;

GREEN BAY      PTSUNNY   60  57  89 NW7       29.98R
6HR MIN TEMP:  58; 6HR MAX TEMP:  61; 6HR PCP:  0.07;

MANITOWOC      PTSUNNY   55  55 100 NW6       29.97R FOG
APPLETON       PTSUNNY   55  55 100 W7        29.99R
CLINTONVILLE   MOSUNNY   55  54  94 N6        29.99R
OSHKOSH        PTSUNNY   57  55  93 W7        29.99R
6HR MIN TEMP:  56; 6HR MAX TEMP:  62; 6HR PCP:  0.31;

$$

WIZ032>034-041-042-053>061-041300-
SOUTHWEST WISCONSIN

CITY           SKY/WX    TMP DP  RH WIND       PRES   REMARKS
LA CROSSE      PTSUNNY   58  53  84 NW10      30.05R
6HR MIN TEMP:  58; 6HR MAX TEMP:  61;

SPARTA         PTSUNNY   56  56  97 CALM      30.03R
VIROQUA        CLOUDY    57  57 100 NW5       30.03R
BOSCOBEL       CLOUDY    57  56  96 E3        30.01S FOG
6HR MIN TEMP:  56; 6HR MAX TEMP:  60;

PRAIRIE DU CHI CLOUDY    56  55  97 CALM      30.00R
PLATTEVILLE    CLOUDY    56  56  97 N7        30.00R
$$

WIZ056-057-062-063-064-067-068-041300-
SOUTH CENTRAL WISCONSIN

CITY           SKY/WX    TMP DP  RH WIND       PRES   REMARKS
REEDSBURG      CLOUDY    57  56  97 W6        30.00R
BARABOO/DELLS  NOT AVBL
LONE ROCK      CLOUDY    59  56  89 N3        30.01R
MINERAL POINT  CLOUDY    57  55  94 N12       30.00R FOG
MADISON        CLOUDY    58  55  90 NW5       30.01R
6HR MIN TEMP:  56; 6HR MAX TEMP:  59; 6HR PCP:  0.19;

MIDDLETON      CLOUDY    59  58  98 NW6       30.01R
WATERTOWN      CLOUDY    56  56 100 NW5       29.99R
MONROE         CLOUDY    54  54 100 NW5       29.99R FOG
JANESVILLE     MOSUNNY   55  55 100 CALM      29.98R FOG
$$

WIZ051-052-058>065-066-070>072-041300-
SOUTHEAST WISCONSIN

CITY           SKY/WX    TMP DP  RH WIND       PRES   REMARKS
MILWAUKEE      CLOUDY    60  55  83 NW9       29.97R
6HR MIN TEMP:  60; 6HR MAX TEMP:  66;

WAUKESHA       CLOUDY    55  55 100 NW6       29.99R
MILWAUKEE/TIMM CLOUDY    57  54  88 NW8       29.98R
RACINE         CLOUDY    60  54  80 MISG      29.98R
6HR MIN TEMP:  59; 6HR MAX TEMP:  67;

BURLINGTON     CLOUDY    53  52  99 CALM      29.98R
KENOSHA        CLOUDY    59  56  89 SW7       29.98R
6HR MIN TEMP:  55; 6HR MAX TEMP:  67; 6HR PCP: TRACE;

FOND DU LAC    CLOUDY    58  55  90 NW8       29.99R
6HR MIN TEMP:  57; 6HR MAX TEMP:  62; 6HR PCP:  0.15;

SHEBOYGAN      CLOUDY    58  56  93 NW10      29.98R
6HR MIN TEMP:  55; 6HR MAX TEMP:  65; 6HR PCP:  0.11;

WEST BEND      CLOUDY    59  54  82 W10       29.98R
JUNEAU         CLOUDY    57  56  94 NW6       30.00R
$$

LSZ147-162-041300-
LAKE SUPERIOR

STATION/POSITION TIME  TEMP    WIND        PRES    WAVE
                       AIR SEA DIR/SP/G            HT/PER
                 (UTC) (F)     (DEG/KT/KT) (MB)    (FT/S)
W MID LAKE BUOY  1050   42 35  300/  8/ 10 1017.1R   1
DEVILS ISLAND    1100   44     240/  8/  8 1018.1R
PORT WING        1140   37     180/  4/  5 1019.0R
SAXON HARBOR     1140   41      CALM  / 11 1018.3R
$$

LMZ867-665-643>646-041300-
LAKE MICHIGAN

STATION/POSITION TIME  TEMP    WIND        PRES    WAVE
                       AIR SEA DIR/SP/G            HT/PER
                 (UTC) (F)     (DEG/KT/KT) (MB)    (FT/S)
CHAMBERS ISLAND  1100   56     280/  6/ 11 1014.2R
NORTHPORT PIER   1100   57     290/  8/ 11 1013.9R
KEWAUNEE LAKESHO 1100   58     320/  8/ 14 1012.6R
SHEBOYGAN LAKESH 1100   58     250/  5/  6 1013.6R
PORT WASHINGTON  1100   60     310/  6/ 10 1014.6
ATWATER BUOY     1100   55     230/  6/  8 1014.5R
MILWAUKEE LAKESH 1100   62     270/  5/  7   N/A
KENOSHA   LAKESH 1100   62     250/  5/  7 1013.5R
$$

TC  - TEMPERATURE IN CELSIUS
VSB - VISIBILITY IN STATUTE MILES
WCI - WIND CHILL INDEX
HX  - HEAT INDEX




USA.gov is the U.S. government's official web portal to all federal, state and local government web resources and services.